This demonstration page uses our WeatherBlox Daily Observations layout. Learn more.

Left ArrowRight Arrow

44.8408, -93.29828

Hourly Observations for March 17, 2016

Temp ( °F °C ) Dew Point ( °F °C ) Humidity (%) Winds ( mph kmh ) Pressure ( in mb ) Visibility ( mi km ) Precip ( " mm )
12:53 am 00:53 Cloudy 41 5 30 -1.1 65 65 W 13 20 29.69 1005 10 16 0.00 0.00
1:53 am 01:53 Cloudy with Light Rain 39 3.9 31 -0.6 73 73 W 18 30 29.70 1006 8 13 0.01 0.25
2:53 am 02:53 Mostly Cloudy 39 3.9 30 -1.1 70 70 W 17 28 29.70 1006 10 16 0.00 0.03
3:53 am 03:53 Mostly Cloudy 36 2.2 27 -2.8 70 70 W 18 30 29.71 1006 10 16 0.00 0.00
4:53 am 04:53 Mostly Cloudy 35 1.7 27 -2.8 72 72 W 14 22 29.72 1007 10 16 0.00 0.00
5:53 am 05:53 Cloudy 35 1.7 26 -3.3 70 70 W 16 26 29.74 1007 10 16 0.00 0.00
6:53 am 06:53 Mostly Cloudy 35 1.7 26 -3.3 70 70 W 9 15 29.75 1008 10 16 0.00 0.00
7:53 am 07:53 Mostly Cloudy 36 2.2 26 -3.3 67 67 W 12 19 29.77 1008 10 16 0.00 0.00
8:53 am 08:53 Mostly Cloudy 38 3.3 26 -3.3 62 62 WSW 10 17 29.77 1008 10 16 0.00 0.00
9:53 am 09:53 Mostly Cloudy 40 4.4 27 -2.8 60 60 W 12 19 29.78 1009 10 16 0.00 0.00
10:53 am 10:53 Cloudy 40 4.4 26 -3.3 58 58 W 15 24 29.79 1009 10 16 0.00 0.00
11:53 am 11:53 Cloudy 40 4.4 23 -5 51 51 W 17 28 29.80 1009 10 16 0.00 0.00
12:53 pm 12:53 Cloudy 41 5 23 -5 49 49 W 15 24 29.81 1010 10 16 0.00 0.00
1:53 pm 13:53 Cloudy 40 4.4 21 -6.1 47 47 W 15 24 29.83 1010 10 16 0.00 0.00
2:53 pm 14:53 Cloudy 39 3.9 23 -5 53 53 W 16 26 29.84 1011 10 16 0.00 0.00
3:53 pm 15:53 Cloudy with Light Snow 38 3.3 25 -3.9 60 60 W 15 24 29.86 1011 10 16 0.00 0.03
4:53 pm 16:53 Cloudy 37 2.8 26 -3.3 65 65 W 10 17 29.88 1012 10 16 0.00 0.03
5:48 pm 17:48 Cloudy 37 3 27 -3 65 65 W 15 24 29.94 1014 10 16 0.00 0.00
5:53 pm 17:53 Cloudy 37 2.8 26 -3.3 65 65 W 14 22 29.91 1013 10 16 0.00 0.00
6:22 pm 18:22 Cloudy 37 2.8 26 -3.3 65 65 WNW 14 22 29.97 1015 10 16 0.00 0.00
6:53 pm 18:53 Cloudy 37 2.8 26 -3.3 65 65 WNW 13 20 29.94 1014 10 16 0.00 0.00
7:53 pm 19:53 Cloudy 37 2.8 25 -3.9 62 62 W 13 20 29.96 1015 10 16 0.00 0.00
8:53 pm 20:53 Mostly Cloudy 36 2.2 24 -4.4 62 62 W 10 17 29.98 1015 10 16 0.00 0.00
9:53 pm 21:53 Cloudy 36 2.2 24 -4.4 62 62 WNW 13 20 29.99 1016 10 16 0.00 0.00
10:53 pm 22:53 Mostly Cloudy 35 1.7 24 -4.4 64 64 WNW 10 17 30.00 1016 10 16 0.00 0.00
11:53 pm 23:53 Mostly Cloudy 33 0.6 24 -4.4 70 70 W 6 9 30.01 1016 10 16 0.00 0.00

Powered by AerisWeather